Terminal Aerodrome Forecast
Issued by NWS Quad Cities IA IL

Home | Current Version | Previous Version | Text Only | Print | Product List | Glossary On
Versions: 1 2 3 4 5 6 7 8 9 10 11 12 13 14 15 16 17 18 19 20 21 22 23 24 25 26 27 28 29
000
FTUS43 KDVN 171536 AAB
TAFDBQ
TAF AMD
KDBQ 171536Z 1716/1812 16020KT 5SM BR BKN020 OVC035
     FM171700 17016KT 6SM -DZ BR OVC015
     FM172300 16010KT 4SM -DZ BR OVC007
     FM180300 14006KT 1SM -RA BR OVC002
     FM180800 01010KT 1SM -RA BR OVC003=

USA.gov is the U.S. government's official web portal to all federal, state and local government web resources and services.